Regional Weather Roundup
Issued by NWS

Home | Current Version | Previous Version | Graphics & Text | Print | Product List | Glossary On
Versions: 1 2 3 4 5 6 7 8 9 10 11 12 13 14 15 16 17 18 19 20 21 22 23 24 25 26 27 28 29 30 31 32 33 34 35 36 37 38 39 40 41 42 43 44 45 46 47 48 49 50
000
ASUS43 KFSD 171710
RWRSD

WEATHER ROUNDUP FOR SOUTH DAKOTA
NATIONAL WEATHER SERVICE SIOUX FALLS SD
1200 PM CDT THU APR 17 2014

NOTE: "FAIR" INDICATES FEW OR NO CLOUDS BELOW 12,000 FEET WITH NO
SIGNIFICANT WEATHER AND/OR OBSTRUCTIONS TO VISIBILITY.


SDZ001>005-009-010-012>017-171800-
NORTHWEST AND NORTH CENTRAL SOUTH DAKOTA

CITY           SKY/WX    TMP DP  RH WIND       PRES   REMARKS
BUFFALO          N/A     34  30  85 SE20      30.04F WCI  23
FAITH            N/A     34  20  56 SE22G29   30.18F WCI  22
MOBRIDGE       MOSUNNY   38  18  44 S10       30.26F
$$

SDZ012>016-024>037-041>051-057-063-072>074-171800-
SOUTHWEST AND SOUTH CENTRAL SOUTH DAKOTA

CITY           SKY/WX    TMP DP  RH WIND       PRES   REMARKS
RAPID CTY ARPT PTSUNNY   43  31  62 S22G28    30.11F
PIERRE         CLOUDY    38  20  48 SE13      30.27F
CUSTER         CLOUDY    30  29  96 S7        30.07S FOG     WCI  23
ELLSWORTH AFB  PTSUNNY   43  31  63 S21       30.10F
PHILIP         CLOUDY    35  23  61 SE12      30.23F WCI  27
PINE RIDGE     PTSUNNY   43  32  65 SW13      30.16F
SPEARFISH      FAIR      43  32  65 NE10      30.05F
WINNER         FAIR      42  21  43 SE9G22    30.29F
$$

SDZ004>011-016>023-039-040-171800-
NORTHEAST SOUTH DAKOTA

CITY           SKY/WX    TMP DP  RH WIND       PRES   REMARKS
ABERDEEN       MOSUNNY   37  19  48 NE6       30.33F
WATERTOWN      MOSUNNY   33  16  49 NE9       30.30F WCI  25
SISSETON         N/A     35  21  56 N7        30.33S WCI  29
$$

SDZ017-020-022-023-036>040-048>070-171800-
SOUTHEAST SOUTH DAKOTA

CITY           SKY/WX    TMP DP  RH WIND       PRES   REMARKS
SIOUX FALLS    MOSUNNY   34  26  72 NE8       30.33S WCI  27
HURON          SUNNY     37  22  54 NE6       30.34S
CHAMBERLAIN      N/A     39  22  50 SE10G17   30.32F
MITCHELL       SUNNY     42  15  33 NE9       30.34S
YANKTON        SUNNY     37  25  60 NE5       30.35S
$$

ABBREVIATIONS USED IN REMARKS
   TC - TEMPERATURE IN CELSIUS
  WCI - WIND CHILL INDEX
   HX - HEAT INDEX
  VSB - VISIBILITY




USA.gov is the U.S. government's official web portal to all federal, state and local government web resources and services.